Weather History for Cumberland, WI

Change the Weather History Date:

Saturday, January 4, 2014

  Actual Average (KRPD) Record (KRPD)
Temperature  
Mean Temperature 13 °F -  
Max Temperature 28 °F 22 °F - (-1)
Min Temperature -4 °F 6 °F - (-1)
Degree Days  
Heating Degree Days 52    
Moisture  
Dew Point 7 °F    
Average Humidity 74    
Maximum Humidity 100    
Minimum Humidity 56    
Precipitation  
Precipitation 0.00 in - - ()
Sea Level Pressure  
Sea Level Pressure 29.80 in    
Wind  
Wind Speed 13 mph (WNW)    
Max Wind Speed 22 mph    
Max Gust Speed 28 mph    
Visibility 8 miles    
Events Snow    
Averages and records for this station are not official NWS values.
T = Trace of Precipitation, MM = Missing Value Source: NWS Daily Summary

Daily Weather History Graph

Daily Weather History Graph

Search for Another Location

Airport:

Trip Planner

Search our weather history database for the weather conditions in past years. The results will help you decide how hot, cold, wet, or windy it might be!

Date:

Astronomy

Jan. 04, 2014 Rise Set
Actual Time 7:47 AM CST 4:38 PM CST
Civil Twilight 7:14 AM CST 5:12 PM CST
Nautical Twilight 6:36 AM CST 5:49 PM CST
Astronomical Twilight 6:00 AM CST 6:25 PM CST
Moon 9:41 AM CST (1/4) 9:12 PM CST (1/4)
Length of Visible Light 9h 57m
Length of Day
8h 50m
Waxing Crescent, 15% of the Moon is Illuminated
Jan 4
Waxing Crescent
Jan 7
First Quarter
Jan 15
Full
Jan 23
Last Quarter
Jan 30
New

Hourly Weather History & Observations

Time (CST) Temp. Windchill Dew Point Humidity Pressure Visibility Wind Dir Wind Speed Gust Speed Precip Events Conditions
12:15 AM 21.2 °F 7.3 °F 19.4 °F 93% 29.41 in 0.5 mi South 16.1 mph - N/A Snow Heavy Snow
12:35 AM 21.2 °F 8.9 °F 19.4 °F 93% 29.41 in 1.0 mi South 12.7 mph 17.3 mph N/A Snow Light Snow
12:55 AM 21.2 °F 8.3 °F 19.4 °F 93% 29.40 in 2.5 mi South 13.8 mph - N/A Snow Light Snow
1:15 AM 21.2 °F 7.8 °F 21.2 °F 100% 29.37 in 2.5 mi SSE 15.0 mph - N/A Snow Light Snow
1:35 AM 23.0 °F 11.1 °F 21.2 °F 93% 29.41 in 5.0 mi SSW 12.7 mph - N/A   Overcast
1:55 AM 23.0 °F 11.7 °F 21.2 °F 93% 29.42 in 7.0 mi SSW 11.5 mph - N/A Snow Light Snow
2:15 AM 23.0 °F 12.4 °F 21.2 °F 93% 29.41 in 7.0 mi South 10.4 mph - N/A   Overcast
2:35 AM 23.0 °F 13.9 °F 21.2 °F 93% 29.39 in 10.0 mi South 8.1 mph - N/A   Overcast
2:55 AM 24.8 °F 16.9 °F 23.0 °F 93% 29.42 in 7.0 mi SSW 6.9 mph - N/A   Overcast
3:15 AM 26.6 °F 16.8 °F 23.0 °F 86% 29.43 in 10.0 mi SW 10.4 mph - N/A   Overcast
3:35 AM 26.6 °F 16.8 °F 23.0 °F 86% 29.43 in 7.0 mi SW 10.4 mph - N/A   Overcast
3:55 AM 26.6 °F 17.5 °F 23.0 °F 86% 29.44 in 5.0 mi SW 9.2 mph - N/A Snow Light Snow
4:15 AM 26.6 °F 16.8 °F 24.8 °F 93% 29.44 in 4.0 mi WSW 10.4 mph - N/A Snow Light Snow
4:35 AM 26.6 °F 18.2 °F 24.8 °F 93% 29.44 in 7.0 mi WSW 8.1 mph - N/A   Overcast
4:55 AM 26.6 °F 19.1 °F 26.6 °F 100% 29.45 in 7.0 mi West 6.9 mph - N/A   Overcast
5:15 AM 28.4 °F 20.4 °F 26.6 °F 93% 29.47 in 3.0 mi West 8.1 mph - N/A   Overcast
5:35 AM 28.4 °F 19.7 °F 26.6 °F 93% 29.49 in 2.5 mi WNW 9.2 mph - N/A Snow Light Snow
5:55 AM 26.6 °F 13.4 °F 23.0 °F 86% 29.52 in 5.0 mi NW 18.4 mph - N/A   Overcast
6:15 AM 24.8 °F 10.3 °F 21.2 °F 86% 29.54 in 5.0 mi NW 20.7 mph 27.6 mph N/A   Overcast
6:35 AM 23.0 °F 9.2 °F 21.2 °F 93% 29.57 in 7.0 mi NW 17.3 mph 20.7 mph N/A   Overcast
6:55 AM 23.0 °F 8.0 °F 19.4 °F 86% 29.59 in 4.0 mi NNW 20.7 mph 25.3 mph N/A   Overcast
7:15 AM 21.2 °F 7.8 °F 17.6 °F 86% 29.63 in 7.0 mi NNW 15.0 mph 23.0 mph N/A   Overcast
7:35 AM 21.2 °F 6.0 °F 17.6 °F 86% 29.65 in 10.0 mi NNW 19.6 mph - N/A   Overcast
7:55 AM 21.2 °F 6.8 °F 14.0 °F 74% 29.67 in 7.0 mi NNW 17.3 mph - N/A   Overcast
8:15 AM 19.4 °F 2.8 °F 12.2 °F 74% 29.70 in 4.0 mi NNW 21.9 mph 26.5 mph N/A Snow Light Snow
8:35 AM 17.6 °F 1.7 °F 10.4 °F 73% 29.73 in 3.0 mi NW 18.4 mph - N/A Snow Light Snow
8:55 AM 15.8 °F -1.1 °F 8.6 °F 73% 29.74 in 7.0 mi NNW 19.6 mph 25.3 mph N/A Snow Light Snow
9:15 AM 14.0 °F -3.0 °F 8.6 °F 79% 29.75 in 5.0 mi NNW 18.4 mph 21.9 mph N/A Snow Light Snow
9:35 AM 14.0 °F -0.8 °F 8.6 °F 79% 29.80 in 1.8 mi NW 13.8 mph - N/A Snow Light Snow
9:55 AM 12.2 °F -2.5 °F 6.8 °F 79% 29.82 in 7.0 mi NW 12.7 mph 17.3 mph N/A Snow Light Snow
10:15 AM 12.2 °F -3.7 °F 5.0 °F 73% 29.83 in 5.0 mi NW 15.0 mph - N/A Snow Light Snow
10:35 AM 12.2 °F -3.7 °F 5.0 °F 73% 29.84 in 7.0 mi NW 15.0 mph 21.9 mph N/A Snow Light Snow
10:55 AM 12.2 °F -3.7 °F 5.0 °F 73% 29.84 in 7.0 mi NNW 15.0 mph - N/A Snow Light Snow
11:15 AM 12.2 °F -4.3 °F 5.0 °F 73% 29.84 in 5.0 mi NW 16.1 mph - N/A Snow Light Snow
11:35 AM 12.2 °F -3.7 °F 3.2 °F 67% 29.85 in 10.0 mi NW 15.0 mph - N/A   Mostly Cloudy
11:55 AM 12.2 °F -1.8 °F 3.2 °F 67% 29.86 in 10.0 mi NW 11.5 mph - N/A   Scattered Clouds
12:15 PM 12.2 °F -2.5 °F 3.2 °F 67% 29.86 in 10.0 mi NW 12.7 mph - N/A   Mostly Cloudy
12:35 PM 12.2 °F -1.8 °F 3.2 °F 67% 29.85 in 10.0 mi North 11.5 mph - N/A   Mostly Cloudy
12:55 PM 12.2 °F -1.8 °F 3.2 °F 67% 29.85 in 10.0 mi NW 11.5 mph 19.6 mph N/A   Scattered Clouds
1:15 PM 14.0 °F 2.0 °F 3.2 °F 62% 29.86 in 10.0 mi NW 9.2 mph - N/A   Clear
1:35 PM 14.0 °F 0.5 °F 3.2 °F 62% 29.88 in 10.0 mi NW 11.5 mph - N/A   Clear
1:55 PM 14.0 °F 0.5 °F 1.4 °F 57% 29.89 in 10.0 mi WNW 11.5 mph 17.3 mph N/A   Scattered Clouds
2:15 PM 14.0 °F 2.0 °F 1.4 °F 57% 29.90 in 10.0 mi WNW 9.2 mph - N/A   Clear
2:35 PM 12.2 °F -1.0 °F 1.4 °F 62% 29.91 in 10.0 mi NW 10.4 mph - N/A   Clear
2:55 PM 12.2 °F -1.0 °F 1.4 °F 62% 29.92 in 10.0 mi NW 10.4 mph - N/A   Clear
3:15 PM 12.2 °F -1.8 °F 1.4 °F 62% 29.95 in 10.0 mi NW 11.5 mph - N/A   Clear
3:35 PM 12.2 °F -1.0 °F 1.4 °F 62% 29.96 in 10.0 mi NW 10.4 mph - N/A   Clear
3:55 PM 10.4 °F -3.3 °F -0.4 °F 62% 29.98 in 10.0 mi NW 10.4 mph - N/A   Clear
4:15 PM 10.4 °F -4.8 °F -0.4 °F 62% 29.99 in 10.0 mi WNW 12.7 mph - N/A   Clear
4:35 PM 10.4 °F 0.8 °F -0.4 °F 62% 29.99 in 10.0 mi WNW 5.8 mph - N/A   Clear
4:55 PM 8.6 °F -2.6 °F -0.4 °F 67% 29.99 in 10.0 mi WNW 6.9 mph - N/A   Clear
5:15 PM 6.8 °F -7.8 °F -2.2 °F 67% 30.01 in 10.0 mi WNW 10.4 mph - N/A   Clear
5:35 PM 5.0 °F -10.0 °F -4.0 °F 66% 30.02 in 10.0 mi West 10.4 mph - N/A   Clear
5:55 PM 5.0 °F -9.1 °F -4.0 °F 66% 30.02 in 10.0 mi WNW 9.2 mph - N/A   Clear
6:15 PM 5.0 °F -8.1 °F -4.0 °F 66% 30.03 in 10.0 mi WNW 8.1 mph - N/A   Clear
6:35 PM 8.6 °F -4.7 °F -4.0 °F 57% 30.03 in 10.0 mi NW 9.2 mph - N/A   Clear
6:55 PM 5.0 °F -5.6 °F -4.0 °F 66% 30.05 in 10.0 mi NW 5.8 mph - N/A   Clear
7:15 PM 6.8 °F -10.0 °F -5.8 °F 56% 30.06 in 10.0 mi NW 13.8 mph - N/A   Clear
7:35 PM 6.8 °F -8.6 °F -5.8 °F 56% 30.07 in 10.0 mi NW 11.5 mph 16.1 mph N/A   Clear
7:55 PM 5.0 °F -10.0 °F -5.8 °F 61% 30.08 in 10.0 mi NW 10.4 mph - N/A   Clear
8:15 PM 5.0 °F -11.6 °F -5.8 °F 61% 30.08 in 10.0 mi NW 12.7 mph - N/A   Clear
8:35 PM 5.0 °F -12.3 °F -7.6 °F 56% 30.09 in 10.0 mi NW 13.8 mph 18.4 mph N/A   Clear
8:55 PM 3.2 °F -12.2 °F -7.6 °F 61% 30.10 in 10.0 mi NW 10.4 mph - N/A   Clear
9:15 PM 3.2 °F -11.3 °F -7.6 °F 61% 30.11 in 10.0 mi NW 9.2 mph - N/A   Clear
9:35 PM 1.4 °F -13.5 °F -9.4 °F 61% 30.12 in 10.0 mi NW 9.2 mph - N/A   Clear
9:55 PM 1.4 °F -13.5 °F -9.4 °F 61% 30.12 in 10.0 mi NW 9.2 mph - N/A   Clear
10:15 PM -0.4 °F -16.7 °F -9.4 °F 66% 30.12 in 10.0 mi NW 10.4 mph - N/A   Clear
10:35 PM -0.4 °F -14.7 °F -9.4 °F 66% 30.13 in 10.0 mi NW 8.1 mph - N/A   Clear
10:55 PM -0.4 °F -14.7 °F -9.4 °F 66% 30.13 in 10.0 mi NW 8.1 mph - N/A   Clear
11:15 PM -2.2 °F -15.6 °F -9.4 °F 71% 30.14 in 10.0 mi NW 6.9 mph - N/A   Clear
11:35 PM -2.2 °F -20.7 °F -11.2 °F 66% 30.15 in 10.0 mi NW 12.7 mph - N/A   Clear
11:55 PM -4.0 °F -21.2 °F -11.2 °F 71% 30.14 in 10.0 mi NW 10.4 mph - N/A   Clear